Informationen zur Loipe auf der Atzenberger Höhe
 
19.01.2019Höhe
ü. NN
ZeitTemperatur (°C)Nieder-
schlag
Luft-
feuchte
Luft-
druck
Wind
StationaktuellMinimumMaximumaktuellMaximum
Aldingen654 m22:11-5,8-10,0 (05:59)-2,0 (14:43)0,0 l/m²92%1016,45,6 km/h (2 Bft) SO14,8 km/h (3 Bft) S-SO (13:07)
Allmannsweiler625 m22:10-9,3-9,3 (22:05)-2,8 (15:25)0,0 l/m²93%1015,51,6 km/h (1 Bft) SO12,9 km/h (3 Bft) SW (13:50)
Allmendingen541 m22:10-8,7-10,2 (07:25)-3,4 (00:35)0,0 l/m²90%1015,80,0 km/h (0 Bft) S-SW16,1 km/h (3 Bft) SO (09:05)
Altshausen574 m22:10-8,3-8,3 (21:57)-2,3 (14:44)0,0 l/m²88%1011,60,0 km/h (0 Bft) W-SW11,3 km/h (2 Bft) N-NO (00:05)
Amstetten-Reutti663 m22:10-7,2-8,0 (06:10)-4,1 (14:40)0,0 l/m²94%1015,50,0 km/h (0 Bft) S-SO27,4 km/h (4 Bft) O (09:45)
Amtzell-Grenis677 m22:10-8,2-8,2 (22:00)-2,1 (14:15)0,0 l/m²88%1017,04,8 km/h (1 Bft) NO16,1 km/h (3 Bft) O-SO (00:00)
Aulendorf570 m22:10-8,1-8,1 (22:06)-2,5 (15:13)0,0 l/m²86%1015,10,0 km/h (0 Bft) S-SW14,5 km/h (3 Bft) NO (00:34)
Bad Krozingen233 m22:10-3,4-5,7 (08:50)0,4 (15:35)0,0 l/m²91%1015,40,0 km/h (0 Bft) O6,6 km/h (2 Bft) W-NW (13:25)
Bad Saulgau595 m22:10-7,8-7,8 (22:05)-1,9 (15:15)0,0 l/m²90%1014,40,0 km/h (0 Bft) W-NW12,9 km/h (3 Bft) W (07:00)
Bad Saulgau-Lampertsweiler627 m22:10-7,3-7,5 (21:00)-2,8 (00:00)0,0 l/m²89%1017,90,0 km/h (0 Bft) O-SO14,5 km/h (3 Bft) S-SO (10:50)
Bad Schussenried572 m22:10-6,8-7,1 (20:40)-2,6 (15:10)0,0 l/m²91%1013,90,0 km/h (0 Bft) SW11,3 km/h (2 Bft) O-NO (00:15)
Bergatreute615 m22:10-10,6-10,6 (22:10)-2,0 (14:20)0,0 l/m²94%1015,80,0 km/h (0 Bft) N12,9 km/h (3 Bft) O-NO (00:00)
Biberach (Riss), Boehringer533 m22:10-7,9-8,2 (22:00)-2,9 (00:00)0,0 l/m²95%1013,94,0 km/h (1 Bft) SW16,6 km/h (3 Bft) S (13:50)
Biberach (Riss), Realschule553 m22:10-9,2-9,2 (22:05)-3,2 (00:00)0,0 l/m²92%1016,80,0 km/h (0 Bft) O-SO16,1 km/h (3 Bft) W-SW (12:55)
Bodnegg-Rotheidlen677 m22:10-7,9-8,1 (06:20)-2,7 (14:25)0,0 l/m²93%1015,80,0 km/h (0 Bft) W-NW14,5 km/h (3 Bft) O (00:00)
Burgrieden523 m22:10-7,2-7,2 (22:05)-3,2 (00:00)0,0 l/m²86%1015,60,0 km/h (0 Bft) S12,9 km/h (3 Bft) S (17:35)
Burgrieden-Hochstetten510 m22:10-7,7-7,7 (22:10)-2,8 (23:00)0,0 l/m²91%1015,74,8 km/h (1 Bft) SO14,5 km/h (3 Bft) SO (08:15)
Donauwörth411 m22:10-6,4-6,4 (22:10)-0,8 (15:05)0,0 l/m²91%1015,80,0 km/h (0 Bft) O-SO22,5 km/h (4 Bft) O (10:45)
Ebersbach579 m22:10-8,7-8,7 (21:55)-2,6 (00:00)0,0 l/m²93%1016,40,0 km/h (0 Bft) O17,7 km/h (3 Bft) O-NO (00:00)
Ebersbach-Boos605 m22:10-8,9-8,9 (22:05)-2,5 (15:15)0,0 l/m²93%1016,20,0 km/h (0 Bft) O-SO22,5 km/h (4 Bft) O (00:05)
Ebersbach-Menzenweiler661 m22:10-6,9-6,9 (21:55)-3,1 (15:05)0,0 l/m²95%1016,18,0 km/h (2 Bft) O-NO29,0 km/h (5 Bft) O-NO (00:00)
Ehingen535 m22:10-8,4-8,4 (22:10)-3,7 (00:50)0,0 l/m²87%1015,82,2 km/h (1 Bft) W-NW12,8 km/h (3 Bft) W-NW (08:50)
Erlenmoos645 m22:10-9,1-9,1 (22:10)-2,6 (15:15)0,0 l/m²85%1015,80,0 km/h (0 Bft) O-NO0,0 km/h (0 Bft) W (00:00)
Ertingen569 m22:15-7,3-7,3 (22:10)-2,8 (15:20)0,0 l/m²90%1015,50,0 km/h (0 Bft) O-SO12,9 km/h (3 Bft) N-NO (07:10)
Friedrichshafen405 m22:10-5,0-5,0 (08:15)2,1 (15:25)0,0 l/m²88%1015,76,4 km/h (2 Bft) NO12,9 km/h (3 Bft) O (23:10)
Günzburg443 m22:10-6,9-7,1 (21:20)-2,2 (15:09)0,0 l/m²89%1013,20,0 km/h (0 Bft) W14,5 km/h (3 Bft) O-SO (09:25)
Höchsten802 m22:10-6,1-7,7 (08:35)-4,1 (14:50)0,0 l/m²93%1013,60,0 km/h (0 Bft) SO38,6 km/h (5 Bft) N-NO (00:35)
Horgenzell618 m22:10-5,1-5,2 (03:50)-3,7 (00:00)0,0 l/m²90%1013,68,0 km/h (2 Bft) O-NO19,3 km/h (3 Bft) NO (00:25)
Hoßkirch632 m22:10-8,7-8,7 (22:10)-2,7 (14:25)0,0 l/m²92%1014,90,0 km/h (0 Bft) SW20,9 km/h (4 Bft) O-NO (00:35)
Isny, Am Dreifingerbach695 m22:10-9,8-11,4 (06:00)-2,3 (15:05)0,0 l/m²90%1015,66,4 km/h (2 Bft) O-SO8,0 km/h (2 Bft) O (05:25)
Isny, Weidachweg706 m22:10-10,6-11,7 (08:20)-1,3 (14:10)0,0 l/m²88%1017,34,8 km/h (1 Bft) SO11,3 km/h (2 Bft) SW (02:20)
Kappel-Grafenhausen163 m22:05-3,2-4,9 (08:20)2,4 (14:45)0,0 l/m²90%1013,00,0 km/h (0 Bft) N6,4 km/h (2 Bft) N-NO (10:25)
Kirchberg an der Iller584 m22:10-8,2-8,2 (21:55)-3,2 (23:00)0,0 l/m²88%1005,40,0 km/h (0 Bft) SO8,0 km/h (2 Bft) S-SW (01:55)
Kißlegg-Staibshof709 m22:10-7,1-7,2 (08:10)-1,4 (15:20)0,0 l/m²96%1015,50,0 km/h (0 Bft) N-NO11,3 km/h (2 Bft) O-NO (00:00)
Kressbronn398 m22:14-4,8-5,1 (07:56)-0,4 (14:52)0,0 l/m²84%1014,50,0 km/h (0 Bft) NO12,9 km/h (3 Bft) NO (01:08)
Kreuzthal-Steinberg-Alpe930 m22:00-6,0-10,0 (08:00)2,6 (12:50)0,0 l/m²100%1015,00,0 km/h (0 Bft) O13,7 km/h (3 Bft) W-NW (00:00)
Kreuzthal-Steinberggipfel1040 m22:10-3,5-8,9 (07:50)0,1 (14:10)-83%1015,011,2 km/h (2 Bft) SW22,7 km/h (4 Bft) O-SO (00:40)
Kristberg im Montafon (AT)1425 m22:10-8,1-9,5 (05:20)3,1 (12:15)0,0 l/m²72%1015,34,8 km/h (1 Bft) N12,9 km/h (3 Bft) N (09:00)
Laupheim500 m22:10-7,2-7,2 (22:10)-3,2 (00:00)0,0 l/m²90%1015,03,2 km/h (1 Bft) SW14,5 km/h (3 Bft) S-SW (12:20)
Lindau-Insel420 m22:10-4,8-6,2 (08:30)1,4 (14:45)0,0 l/m²84%1014,88,0 km/h (2 Bft) N11,3 km/h (2 Bft) W (13:55)
Lindau-Stadt412 m22:10-5,4-6,8 (07:45)-0,4 (11:50)0,0 l/m²85%1015,16,4 km/h (2 Bft) NO9,7 km/h (2 Bft) N (01:10)
Maierhöfen im Allgäu733 m22:15-14,1-15,2 (08:10)1,6 (13:30)0,0 l/m²89%1017,00,0 km/h (0 Bft) SW4,8 km/h (1 Bft) O (01:45)
Maselheim-Sulmingen548 m22:10-8,8-8,8 (21:10)-3,7 (23:00)0,0 l/m²92%1017,24,8 km/h (1 Bft) O-SO12,9 km/h (3 Bft) O (23:05)
Mietingen-Baltringen528 m22:10-8,2-8,2 (22:10)-3,3 (00:00)0,0 l/m²87%1017,64,8 km/h (1 Bft) W12,9 km/h (3 Bft) SO (08:20)
Mindelheim-Apfeltrach620 m22:11-13,2-13,2 (22:00)-2,3 (14:59)0,2 l/m²88%1017,04,8 km/h (1 Bft) S6,4 km/h (2 Bft) NO (06:59)
Neresheim552 m22:00-6,1-6,1 (22:00)-3,8 (15:33)0,0 l/m²92%1012,20,0 km/h (0 Bft) S15,1 km/h (3 Bft) O-SO (09:22)
Neukirch570 m22:10-7,2-7,4 (07:10)-0,8 (13:00)0,0 l/m²92%1016,04,8 km/h (1 Bft) NO9,7 km/h (2 Bft) NO (23:30)
Ochsenhausen, Birkenstraße613 m22:10-10,7-10,7 (22:05)-3,5 (14:15)0,0 l/m²84%1016,36,4 km/h (2 Bft) O11,3 km/h (2 Bft) O-NO (08:05)
Ochsenhausen, Unt. Wiesen575 m22:10-10,6-10,6 (22:00)-3,7 (00:00)0,0 l/m²90%1017,38,0 km/h (2 Bft) S-SW14,5 km/h (3 Bft) S-SO (08:05)
Ostrach619 m22:10-8,7-8,7 (22:00)-1,3 (14:40)0,0 l/m²92%1014,20,0 km/h (0 Bft) S-SO17,7 km/h (3 Bft) N-NO (23:00)
Ravensburg428 m22:10-5,9-5,9 (22:05)-0,4 (15:10)0,0 l/m²90%1015,08,0 km/h (2 Bft) N16,1 km/h (3 Bft) N-NO (01:45)
Ravensburg-Wernsreute511 m22:10-6,9-7,0 (21:20)-1,7 (15:25)0,0 l/m²91%1017,89,7 km/h (2 Bft) N22,5 km/h (4 Bft) N-NO (23:30)
Reichenbach an der Fils343 m22:10-5,7-5,7 (22:10)-1,8 (11:20)0,0 l/m²84%1017,43,2 km/h (1 Bft) O-SO24,1 km/h (4 Bft) O (20:10)
Reinstetten559 m22:10-10,7-10,7 (22:05)-3,2 (00:00)0,0 l/m²91%1016,36,4 km/h (2 Bft) S-SW17,7 km/h (3 Bft) SO (09:35)
Riedlingen530 m22:10-7,4-7,4 (22:10)-3,2 (15:25)0,0 l/m²91%1015,60,0 km/h (0 Bft) O-NO12,9 km/h (3 Bft) O-NO (00:45)
Schemmerhofen520 m22:10-8,6-8,6 (22:10)-3,0 (00:00)0,0 l/m²91%1015,41,6 km/h (1 Bft) SW12,9 km/h (3 Bft) N-NO (04:00)
Silbertal im Montafon (AT)884 m22:10-7,8-9,2 (06:40)-4,6 (14:50)0,0 l/m²90%1017,60,0 km/h (0 Bft) SO3,2 km/h (1 Bft) S-SO (02:00)
Tettnang466 m22:10-5,1-5,9 (07:35)-0,5 (14:55)0,0 l/m²85%1014,26,4 km/h (2 Bft) O-NO14,5 km/h (3 Bft) O (01:05)
Tuttlingen662 m22:10-7,1-9,6 (05:10)-3,9 (14:35)0,0 l/m²89%1015,70,0 km/h (0 Bft) O-SO11,3 km/h (2 Bft) O-SO (14:40)
Ummendorf547 m22:10-9,6-9,9 (22:00)-3,4 (01:30)0,0 l/m²90%1016,81,6 km/h (1 Bft) S-SO16,1 km/h (3 Bft) SW (13:05)
Ummendorf-Fischbach558 m22:10-10,2-10,4 (21:45)-3,9 (01:25)0,0 l/m²90%1017,20,0 km/h (0 Bft) S-SO14,5 km/h (3 Bft) O-NO (01:35)
Waldburg707 m22:10-7,7-7,7 (22:10)-3,2 (13:05)0,0 l/m²92%1015,30,0 km/h (0 Bft) N14,5 km/h (3 Bft) N (00:15)
Waltenhofen im Allgäu720 m22:10-13,1-13,7 (07:35)-0,8 (13:35)0,2 l/m²89%1016,40,0 km/h (0 Bft) S-SW4,8 km/h (1 Bft) S-SW (11:55)
Weingarten500 m22:10-7,9-7,9 (22:05)-1,5 (14:25)0,0 l/m²88%1015,60,0 km/h (0 Bft) O-NO8,0 km/h (2 Bft) O-NO (00:55)
Winterlingen785 m21:45-6,8-10,0 (07:00)-3,9 (16:00)0,0 l/m²96%1013,74,0 km/h (1 Bft) S-SW7,2 km/h (2 Bft) S-SO (10:40)

Werbung
niederschlagsdatenbank | info | login - erfassung

Sollten Sie Interesse haben, an der Niederschlagsdatenbank teilzunehmen, finden Sie > hier < weitere Informationen.

Niederschlagsdaten der Station Bad Waldsee-Haisterkirch - Zur Spitzenkapelle 1

Josef Zell

Niederschlagsstation aufgenommen ins Stationsnetz der Wetterwarte Süd am 01.03.2009
Monat: .
Anmerkung:0,0 = nicht messbarer Niederschlag
 -  = kein Niederschlag

Stationsdaten

Höhe

640 m

Lage

Auf Google Maps ansehen

Beschreibung

Zwei für die Region ungewöhnlich massive Gewitterregen mit Überschwemmungen erheblichen Ausmaßes binnen weniger Jahre um die Jahrtausendwende lieferten die Idee zum Aufstellen einer Wetterstation. Die Station liegt nur unweit vom Ortskern (Kirche, Rathaus / Klostergebäude). Auf Grund einer Weststaulage am Fuße des Haidgauer Berges (754 m Grabener Höhe / Aussichtspunkt Alpen bis Bussen) registriere ich an meiner Hobbystation in der Regel mehr Niederschlag als die offizielle Wetterstation im etwa 15 km westlicher liegenden Bad Schussenried. Die Windrichtung wird oft durch den Höhenzug lokal verändert. (Ostwinde hier oft aus Nord) Die Daten werden im 12-Minuten Turnus erfasst. Die Mindestmenge zur Registrierung beträgt 0,3l/qm. Es handelt sich um einen selbstentleerenden Wippenmesser. Der Regenmesser ist Solarbetrieben und ohne Heizung. Auf Grund dessen sind die Niederschlagsmengen bei Schneefall in der Regel nahezu NULL. Bei Tauwetter jedoch werden die fehlenden Mengen ausgeglichen. Die Werte sind also im Winter mit diesem Hintergrundwissen zu interpretieren!!!

Der bereits in einer Urkunde des Klosters St. Gallen aus dem Jahre 805 erstmals erwähnte Ort ist das Hauptort des etwa 1400 Einwohner zählenden Haistergaus. Etwa 4 km südlich von Haisterkirch und etwa 60 m höher gelegen ist bei der "Schanze" der Übergang in das "Wurzacher Becken". Im Norden läuft das Tal sanft zum Rißtal hin aus. Gut 1 km westlich (Richtung Bad Waldsee) wird das Tal durch eine Eiszeitmoräne begrenzt. Diese ist zugleich die Europäische Wasserscheide Rhein / Donau. Das Wasser der zahlreichen Quellen des im Osten angrenzenden Haidgauer Höhenzuges (Entfernung ca. 1.5 km, Höhe gut 100 m über dem Ort) fließt in den Haisterbach, von da in die Umlach. Diese in die Riß und schließlich in die Donau. Landwirtschaftliche Nutzfläche sowie mehrere Ortschaften und Weiler prägen das Tal. Einen Besuch wert sind insbesonders die Pfarrkirche, das Klostergebäude (beinhaltet unter anderem eine der schönsten Grundschulen des Landes sowie das Rathaus) und die Wallfahrtskapelle St. Sebastian. Auch das nur 2 km entfernte Naherholungsgebiet "Tannenbühl" mit Kletterpark, Spielplatz und zahlreichen Wildgehegen sowie Lehrpfaden ist ein das gesamte Jahr über beliebtes Ausflugsziel.
< Dezember 2018

Januar 2019

TagNiederschlagBemerkung
01.1,8
-1/+2°C, Hochnebel, allen Nutzern ein gesundes und gedeihliches Neues Jahr
Schnee Bodennebel
02.1,0
-5/+1°C, bewölkt, mehrere Schneeschauer, teils mit Regen, zur Nacht kalt
Schneeregen Schnee
Schneehöhe: 1 cm
03.1,0
-7,5/-1,5°C, EISTAG, ab dem Nachmittag Schneeschauer
Schnee
Schneehöhe: 2 cm
04.3,5
-4/+1°C, um die Mittagszeit kurzzeitig frostfrei, oft bewölkt, zeitweise leichte Schneeschauer, zur Früh intensivierend
Schnee
Schneehöhe: 2 cm
05.28,0
-2/+0,7°C, seit der Früh kräftiger Schneefall, zum Abend und in der Nacht Schneeregen und schwerer Babschnee
Schneeregen Schnee
Schneehöhe: 4 cm
06.5,0
-0,5/+1,5°C, leichtes Tauwetter, nasskalt, meist leichter Niederschlag, Schnee setzt sich in Folge Durchnässung
Nieselregen Schneeregen
Schneehöhe: 30 cm
07.4,0
+0,2/+2,5°C, leichtes Tauwetter, 2. Nachthälfte Schneeregen
Nieselregen Schneeregen
Schneehöhe: 20 cm
08.3,5
-0,5/+3°C, nasskalt + winindig, morgens und abends Schneeregen, um die Mittagszeit kurzzeitig aufgelockert
Regen Schneeregen
Schneehöhe: 17 cm
09.15,6
-2/+1,5°C, tagsüber meist trocken, strammer Wind, zur Nacht ausgiebiger Schneefall
Schnee
Schneehöhe: 15 cm
10.5,1
-4/+0,3°C, vormittags ordentlicher, nachmittags leichter und anhaltender Schneefall. Schneedecke hat binnen 2 Tage um 20cm zugenommen
Schnee
Schneehöhe: 33 cm
11.10,9
-9/-1°C, nach kalter klarer Nacht Frostabschwächung, zur Nacht Schneegestöber, zur Früh schwerer nasser Schnee
Schneeregen Schnee
Schneehöhe: 38 cm
12.9,0
-2/+1°C, vor allem in der ersten Nachthälfte ausgiebig schwerer Neuschnee bei stürmischem Wind aus SW
Nieselregen Schneeregen Schnee
Schneehöhe: 35 cm
13.17,3
0/+3,5°C, DACHLAWINENWETTER: um die Mittagszeit einsetzender Schneefall und starker Wind, ab 14:00 Regenwetter
Regen Schneeregen Schnee Bodennebel
Schneehöhe: 45 cm
14.1,0
-2/+3,5°C, bewölkt, zur Nacht Schneeschauer und Frost
Schnee
Schneehöhe: 23 cm
15.-
-3/+2,5°C, "sonnigster" Tag seit 18.12.!
Schneehöhe: 24 cm
16.-
-6,5/+2,5°C, nach klarer, kalter Nacht ganztags Sonnenschein, zeitweise dünne Schleierwolken
Schneehöhe: 23 cm
17.0,8
0/+5°C, nach frostfreier Nacht tagsüber Tauwetter bei nachmittäglichem Regen
Regen
Schneehöhe: 21 cm
18.-
22:00: -6,5/+1,5°C, vormittags bewölkt, nachmittags freundlich
Schneehöhe: 20 cm
19.-
20.-
21.-
22.-
23.-
24.-
25.-
26.-
27.-
28.-
29.-
30.-
31.-
Gesamt:107,5 
Die Spalten "Tag" und "Niederschlag" lassen sich durch Klicken auf den Spaltenkopf sortieren.
Die Angaben sind in l/m².

< Dezember 2018


Monats- und Jahresniederschlag


Wetterbeobachtungen Legende:

  • Regen
  • Nieselregen
  • Schneeregen
  • Schnee
  • Graupel
  • Eiskörner
  • Hagel
  • Bodennebel
  • Gewitter
  • Nebelnässe
  • Schneegriesel

Grafische Darstellung der Niederschläge der Station Bad Waldsee-Haisterkirch Januar 2019

 
wetterstationen
wetterstationen
- derzeit 73 Stationen
niederschlagsdatenbank
wetterstationen
- kartographische Darstellung
niederschlagsdatenbank
niederschlagsstationen
- derzeit 103 Stationen
niederschlagsdatenbank
niederschlagsstationen
- kartographische Darstellung
 
 
Fr. 7.30 Uhr - Sa. 7.30 Uhr (MEZ)
1.Waldburg2,0 l/m²
2.Ulm1,5 l/m²
3.Amstetten-Reutti0,8 l/m²
4.Langenau0,5 l/m²
5.Dornstadt-Tomerdingen0,5 l/m²
6.Eberhardzell
Lilienweg
0,1 l/m²
7.Eislingen0,1 l/m²
8.Langenenslingen0,1 l/m²
9.Kreuzthal-Steinberg-Alpe0,0 l/m²
10.Ehingen
Rosenstraße
0,0 l/m²
11.Füramoos0,0 l/m²
12.Ehingen
Schillerstraße
0,0 l/m²
13.Ravensburg-Schmalegg0,0 l/m²
 
Sa. 19.01.2019 - 7.30 Uhr (MEZ)
1.Kreuzthal-Steinberg-Alpe108 cm
2.Isny54 cm
3.Leutkirch-Adrazhofen45 cm
4.Waldburg40 cm
5.Bad Wurzach-Seibranz39 cm
6.Münsingen-Rietheim34 cm
7.Schelklingen-Gundershofen24 cm
8.Eberhardzell
Lilienweg
19 cm
9.Amstetten-Reutti18 cm
10.Ochsenhausen15 cm
11.Horgenzell-Ringgenweiler9 cm
12.Tuttlingen-Möhringen
Eßlinger Straße
8 cm
13.Ravensburg-Schmalegg7 cm
14.Langenenslingen2 cm
15.Ehingen
Schillerstraße
1 cm
16.Langenauca 1cm
17.Ulmalles wieder weg
18.Moosburgstark angezuckert
19.AulendorfReste
20.WolpertswendeReste
21.Öpfingen"Reste"
22.Weingarten
Marienstraße
Reste
23.BalzheimReste
24.Riedhausenr
25.Pfaffenhofen-KadeltshofenReste
26.Bad Saulgau
Walserweg
Reste
27.Weingarten
Laurastraße
Reste
 
  treffpunkt & service
--- Anzeigen --------------------------------
zugriffe:
insgesamt: 40.646.257
aktueller monat: 319.338
heute: 12.250
momentan online: 66
 
 
monatshöchstwert: 653.625
vorheriger monat: 400.931
gestern: 9.684
tageshöchstwert: 45.129
 
wetterwarte süd
 
konradstraße 3
info@wetterwarte-sued.com
roland roth
 
88427 bad schussenried